Somerville, NJ

9:20 PM EDT on March 22, 2017 (GMT -0400)
Somerset

Weather History for KSMQ - June, 2015

Change the Weather History Date:

Friday, June 26, 2015

  Actual Average Record
Temperature  
Mean Temperature 73 °F -  
Max Temperature 82 °F 82 °F 101 °F (1952)
Min Temperature 64 °F 57 °F 44 °F (1979)
Cooling Degree Days 8    
Growing Degree Days 23 (Base 50)    
Moisture  
Dew Point 60 °F    
Average Humidity 69    
Maximum Humidity 90    
Minimum Humidity 42    
Precipitation  
Precipitation 0.00 in - - ()
Sea Level Pressure  
Sea Level Pressure 29.96 in    
Wind  
Wind Speed 1 mph (NE)    
Max Wind Speed 6 mph    
Max Gust Speed -    
Visibility 10 miles    
Events      
Averages and records for this station are not official NWS values.
T = Trace of Precipitation, MM = Missing Value Source: NWS Daily Summary

Daily Weather History Graph

Daily Weather History Graph

Search for Another Location

Airport or City:

Trip Planner

Search our weather history database for the weather conditions in past years. The results will help you decide how hot, cold, wet, or windy it might be!

Date:

Astronomy

Jun. 26, 2015 Rise Set
Actual Time 5:29 AM EDT 8:33 PM EDT
Civil Twilight 4:55 AM EDT 9:06 PM EDT
Nautical Twilight 4:13 AM EDT 9:49 PM EDT
Astronomical Twilight 3:23 AM EDT 10:39 PM EDT
Moon 3:11 PM EDT (6/26) 1:45 AM EDT (6/26)
Length of Visible Light 16h 11m
Length of Day
15h 04m
Waxing Gibbous, 71% of the Moon is Illuminated
Jun 26
Waxing Gibbous
Jul 1
Full
Jul 8
Last Quarter
Jul 15
New
Jul 24
First Quarter

Hourly Weather History & Observations

Time (EDT) Temp. Heat Index Dew Point Humidity Pressure Visibility Wind Dir Wind Speed Gust Speed Precip Events Conditions
12:53 AM 66.9 °F - 61.0 °F 81% 29.95 in 10.0 mi Calm Calm - N/A   Overcast
1:53 AM 64.9 °F - 61.0 °F 87% 29.93 in 10.0 mi Calm Calm - N/A   Overcast
2:53 AM 64.0 °F - 61.0 °F 90% 29.91 in 10.0 mi Calm Calm - N/A   Overcast
3:53 AM 64.9 °F - 60.1 °F 84% 29.91 in 10.0 mi Calm Calm - N/A   Overcast
4:53 AM 64.9 °F - 61.0 °F 87% 29.91 in 10.0 mi Calm Calm - N/A   Overcast
5:53 AM 64.0 °F - 61.0 °F 90% 29.91 in 8.0 mi Calm Calm - N/A   Overcast
6:53 AM 64.9 °F - 61.0 °F 87% 29.94 in 10.0 mi Calm Calm - N/A   Overcast
7:53 AM 68.0 °F - 61.0 °F 78% 29.93 in 10.0 mi NNW 3.5 mph - N/A   Scattered Clouds
8:53 AM 71.1 °F - 60.1 °F 68% 29.94 in 10.0 mi North 4.6 mph - N/A   Overcast
9:53 AM 73.9 °F - 61.0 °F 64% 29.94 in 10.0 mi Variable 4.6 mph - N/A   Mostly Cloudy
10:53 AM 75.9 °F - 59.0 °F 56% 29.96 in 10.0 mi Variable 5.8 mph - N/A   Overcast
11:53 AM 78.1 °F - 61.0 °F 56% 29.96 in 10.0 mi Calm Calm - N/A   Partly Cloudy
12:53 PM 79.0 °F - 61.0 °F 54% 29.96 in 10.0 mi Calm Calm - N/A   Scattered Clouds
1:53 PM 79.0 °F - 59.0 °F 50% 29.95 in 10.0 mi Calm Calm - N/A   Overcast
2:53 PM 82.9 °F 83.2 °F 60.1 °F 46% 29.94 in 10.0 mi Variable 3.5 mph - N/A   Partly Cloudy
3:53 PM 81.0 °F 81.3 °F 59.0 °F 47% 29.94 in 10.0 mi ENE 4.6 mph - N/A   Mostly Cloudy
4:53 PM 80.1 °F 80.9 °F 60.1 °F 50% 29.95 in 10.0 mi Variable 3.5 mph - N/A   Overcast
5:53 PM 81.0 °F 80.8 °F 55.9 °F 42% 29.96 in 10.0 mi ENE 4.6 mph - N/A   Mostly Cloudy
6:53 PM 77.0 °F - 60.1 °F 56% 29.99 in 10.0 mi Calm Calm - N/A   Overcast
7:53 PM 75.0 °F - 62.1 °F 64% 30.00 in 10.0 mi Calm Calm - N/A   Partly Cloudy
8:53 PM 72.0 °F - 61.0 °F 68% 30.00 in 10.0 mi Calm Calm - N/A   Partly Cloudy
9:53 PM 66.9 °F - 62.1 °F 84% 30.04 in 10.0 mi SSE 3.5 mph - N/A   Clear
10:53 PM 68.0 °F - 62.1 °F 81% 30.04 in 10.0 mi Calm Calm - N/A   Clear
11:53 PM 68.0 °F - 61.0 °F 78% 30.05 in 10.0 mi Calm Calm - N/A   Mostly Cloudy